Newcastle, WY

8:55 AM MST on December 14, 2019 (GMT -0700)
Mondell

Weather History for KECS - October, 2019

Change the Weather History Date:

Saturday, October 26, 2019

  Actual Average (KCUT) Record (KCUT)
Temperature  
Mean Temperature 38 °F -  
Max Temperature 50 °F 56 °F 72 °F (1952)
Min Temperature 26 °F 27 °F 12 °F (1953)
Degree Days  
Heating Degree Days 27    
Moisture  
Dew Point 25 °F    
Average Humidity 70    
Maximum Humidity 81    
Minimum Humidity 40    
Precipitation  
Precipitation 0.00 in - - ()
Sea Level Pressure  
Sea Level Pressure 29.86 in    
Wind  
Wind Speed 12 mph (North)    
Max Wind Speed 32 mph    
Max Gust Speed 43 mph    
Visibility 9 miles    
Events Snow    
Averages and records for this station are not official NWS values.
T = Trace of Precipitation, MM = Missing Value Source: NWS Daily Summary

Daily Weather History Graph

Daily Weather History Graph

Search for Another Location

Airport or City:

Astronomy

Oct. 26, 2019 Rise Set
Actual Time 7:25 AM MDT 5:56 PM MDT
Civil Twilight 6:55 AM MDT 6:25 PM MDT
Nautical Twilight 6:22 AM MDT 6:59 PM MDT
Astronomical Twilight 5:48 AM MDT 7:32 PM MDT
Moon 5:17 AM MDT (10/26) 5:38 PM MDT (10/26)
Length of Visible Light 11h 30m
Length of Day
10h 30m
Waning Crescent, 3% of the Moon is Illuminated
Oct 26
Waning Crescent
Oct 27
New
Nov 4
First Quarter
Nov 12
Full
Nov 19
Last Quarter

Hourly Weather History & Observations

Time (MDT) Temp. Windchill Dew Point Humidity Pressure Visibility Wind Dir Wind Speed Gust Speed Precip Events Conditions
12:15 AM 50.0 °F - 26.6 °F 40% 29.82 in 10.0 mi ESE 9.2 mph 17.3 mph N/A   Clear
12:35 AM 46.4 °F 42.4 °F 26.6 °F 46% 29.82 in 10.0 mi East 8.1 mph 16.1 mph N/A   Clear
12:55 AM 44.6 °F 40.7 °F 26.6 °F 49% 29.82 in 10.0 mi East 6.9 mph - N/A   Clear
1:15 AM 42.8 °F 39.3 °F 26.6 °F 53% 29.81 in 10.0 mi SSE 5.8 mph - N/A   Clear
1:35 AM 42.8 °F 38.6 °F 26.6 °F 53% 29.80 in 10.0 mi East 6.9 mph - N/A   Clear
1:55 AM 42.8 °F 38.6 °F 26.6 °F 53% 29.78 in 10.0 mi East 6.9 mph - N/A   Clear
2:15 AM 41.0 °F 37.1 °F 26.6 °F 57% 29.79 in 10.0 mi ENE 5.8 mph - N/A   Clear
2:35 AM 37.4 °F - 28.4 °F 70% 29.79 in 10.0 mi Calm Calm - N/A   Clear
2:55 AM 35.6 °F - 28.4 °F 75% 29.78 in 10.0 mi Calm Calm - N/A   Clear
3:35 AM 35.6 °F 32.8 °F 28.4 °F 75% 29.76 in 10.0 mi NNE 3.5 mph - N/A   Clear
3:55 AM 35.6 °F 30.7 °F 28.4 °F 75% 29.76 in 10.0 mi NNE 5.8 mph - N/A   Clear
4:15 AM 33.8 °F - 28.4 °F 81% 29.75 in 10.0 mi Calm Calm - N/A   Clear
4:35 AM 35.6 °F - 28.4 °F 75% 29.75 in 10.0 mi Calm Calm - N/A   Clear
4:55 AM 33.8 °F 30.8 °F 28.4 °F 81% 29.75 in 10.0 mi North 3.5 mph - N/A   Clear
5:15 AM 33.8 °F 27.7 °F 28.4 °F 81% 29.74 in 10.0 mi North 6.9 mph - N/A   Clear
5:35 AM 33.8 °F 26.4 °F 28.4 °F 81% 29.74 in 10.0 mi North 9.2 mph - N/A   Clear
5:55 AM 33.8 °F 27.0 °F 28.4 °F 81% 29.74 in 10.0 mi North 8.1 mph - N/A   Clear
6:15 AM 33.8 °F 29.6 °F 28.4 °F 81% 29.74 in 10.0 mi North 4.6 mph - N/A   Clear
6:35 AM 33.8 °F - 28.4 °F 81% 29.74 in 10.0 mi Calm Calm - N/A   Clear
6:55 AM 33.8 °F 27.0 °F 28.4 °F 81% 29.73 in 10.0 mi North 8.1 mph - N/A   Clear
7:15 AM 33.8 °F 30.8 °F 28.4 °F 81% 29.73 in 10.0 mi ENE 3.5 mph - N/A   Clear
7:35 AM 33.8 °F 27.7 °F 28.4 °F 81% 29.72 in 10.0 mi North 6.9 mph - N/A   Clear
7:55 AM 33.8 °F 27.7 °F 28.4 °F 81% 29.72 in 10.0 mi North 6.9 mph - N/A   Clear
8:35 AM 37.4 °F 33.8 °F 28.4 °F 70% 29.73 in 10.0 mi NNW 4.6 mph 10.4 mph N/A   Clear
8:55 AM 37.4 °F 29.3 °F 28.4 °F 70% 29.74 in 10.0 mi NNW 12.7 mph 24.2 mph N/A   Clear
9:15 AM 41.0 °F 35.2 °F 28.4 °F 61% 29.74 in 10.0 mi NW 9.2 mph - N/A   Clear
9:35 AM 41.0 °F 34.3 °F 30.2 °F 65% 29.75 in 10.0 mi NW 11.5 mph - N/A   Clear
9:55 AM 44.6 °F 36.1 °F 32.0 °F 61% 29.76 in 10.0 mi NW 21.9 mph 27.6 mph N/A   Clear
10:15 AM 42.8 °F 33.8 °F 32.0 °F 66% 29.77 in 10.0 mi NW 21.9 mph 32.2 mph N/A   Clear
10:35 AM 41.0 °F 30.2 °F 30.2 °F 65% 29.80 in 10.0 mi NNW 27.6 mph 35.7 mph N/A   Scattered Clouds
10:55 AM 41.0 °F 31.6 °F 30.2 °F 65% 29.80 in 10.0 mi NNW 20.7 mph 32.2 mph N/A   Mostly Cloudy
11:15 AM 41.0 °F 31.4 °F 30.2 °F 65% 29.78 in 10.0 mi North 21.9 mph 31.1 mph N/A   Mostly Cloudy
11:35 AM 41.0 °F 30.7 °F 30.2 °F 65% 29.80 in 10.0 mi NNW 25.3 mph 39.1 mph N/A   Scattered Clouds
11:55 AM 37.4 °F 25.9 °F 28.4 °F 70% 29.82 in 10.0 mi NNW 25.3 mph 34.5 mph N/A   Overcast
12:15 PM 35.6 °F 23.2 °F 28.4 °F 75% 29.84 in 10.0 mi NNW 26.5 mph 36.8 mph N/A   Overcast
12:35 PM 35.6 °F 24.2 °F 26.6 °F 70% 29.84 in 10.0 mi NNW 21.9 mph 38.0 mph N/A   Overcast
12:55 PM 33.8 °F 21.0 °F 26.6 °F 75% 29.85 in 10.0 mi NNW 25.3 mph 39.1 mph N/A   Overcast
1:15 PM 35.6 °F 23.0 °F 26.6 °F 70% 29.85 in 10.0 mi NNW 27.6 mph 33.4 mph N/A   Overcast
1:35 PM 35.6 °F 22.1 °F 26.6 °F 70% 29.84 in 10.0 mi North 32.2 mph 38.0 mph N/A   Mostly Cloudy
1:55 PM 37.4 °F 24.6 °F 24.8 °F 60% 29.84 in 10.0 mi NNW 32.2 mph 42.6 mph N/A   Scattered Clouds
2:15 PM 35.6 °F 23.4 °F 24.8 °F 65% 29.85 in 10.0 mi NNW 25.3 mph 38.0 mph N/A   Mostly Cloudy
2:35 PM 33.8 °F 21.9 °F 26.6 °F 75% 29.86 in 10.0 mi North 21.9 mph 35.7 mph N/A   Overcast
2:55 PM 33.8 °F 21.0 °F 24.8 °F 70% 29.86 in 10.0 mi NNW 25.3 mph 36.8 mph N/A   Overcast
3:15 PM 33.8 °F 21.3 °F 23.0 °F 65% 29.86 in 10.0 mi North 24.2 mph 35.7 mph N/A   Overcast
3:35 PM 33.8 °F 21.0 °F 23.0 °F 65% 29.87 in 10.0 mi NNW 25.3 mph 36.8 mph N/A   Overcast
3:55 PM 33.8 °F 21.9 °F 21.2 °F 60% 29.88 in 10.0 mi North 21.9 mph 34.5 mph N/A   Overcast
4:15 PM 32.0 °F 18.6 °F 21.2 °F 64% 29.88 in 10.0 mi NNW 25.3 mph 36.8 mph N/A   Overcast
4:35 PM 32.0 °F 18.9 °F 21.2 °F 64% 29.91 in 10.0 mi NNW 24.2 mph 31.1 mph N/A   Overcast
4:55 PM 32.0 °F 20.1 °F 23.0 °F 69% 29.93 in 10.0 mi NNW 19.6 mph 28.8 mph N/A Snow Light Snow
5:15 PM 32.0 °F 21.2 °F 23.0 °F 69% 29.94 in 10.0 mi NNW 16.1 mph 23.0 mph N/A Snow Light Snow
5:35 PM 32.0 °F 20.5 °F 23.0 °F 69% 29.93 in 10.0 mi NNW 18.4 mph 29.9 mph N/A Snow Light Snow
5:55 PM 30.2 °F 21.9 °F 24.8 °F 80% 29.94 in 1.8 mi NNW 9.2 mph 23.0 mph N/A Snow Light Snow
6:15 PM 32.0 °F 21.6 °F 23.0 °F 69% 29.94 in 10.0 mi NNW 15.0 mph 23.0 mph N/A   Overcast
6:35 PM 30.2 °F 16.8 °F 23.0 °F 75% 29.95 in 5.0 mi North 23.0 mph 26.5 mph N/A Snow Light Snow
6:55 PM 30.2 °F 16.5 °F 21.2 °F 69% 29.93 in 10.0 mi North 24.2 mph 33.4 mph N/A Snow Light Snow
7:15 PM 28.4 °F 13.8 °F 21.2 °F 74% 29.93 in 5.0 mi North 25.3 mph 31.1 mph N/A Snow Light Snow
7:35 PM 28.4 °F 16.2 °F 21.2 °F 74% 29.96 in 7.0 mi NNW 17.3 mph 29.9 mph N/A Snow Light Snow
7:55 PM 28.4 °F 16.2 °F 21.2 °F 74% 29.97 in 10.0 mi NNW 17.3 mph 28.8 mph N/A   Overcast
8:15 PM 30.2 °F 18.5 °F 21.2 °F 69% 29.98 in 10.0 mi NNW 17.3 mph 25.3 mph N/A Snow Light Snow
8:35 PM 28.4 °F 18.5 °F 23.0 °F 80% 29.98 in 3.0 mi NW 11.5 mph - N/A Snow Light Snow
8:55 PM 28.4 °F 18.0 °F 23.0 °F 80% 30.00 in 3.0 mi NW 12.7 mph 18.4 mph N/A Snow Light Snow
9:15 PM 28.4 °F 17.0 °F 23.0 °F 80% 30.00 in 7.0 mi NW 15.0 mph - N/A Snow Light Snow
9:35 PM 26.6 °F 14.3 °F 21.2 °F 80% 30.00 in 10.0 mi NNW 16.1 mph 23.0 mph N/A Snow Light Snow
9:55 PM 26.6 °F 15.2 °F 21.2 °F 80% 30.04 in 3.0 mi NNW 13.8 mph 23.0 mph N/A Snow Light Snow
10:15 PM 26.6 °F 13.1 °F 19.4 °F 74% 30.05 in 7.0 mi NNW 19.6 mph 29.9 mph N/A Snow Light Snow
10:35 PM 26.6 °F 15.2 °F 19.4 °F 74% 30.05 in 7.0 mi NNW 13.8 mph 23.0 mph N/A   Overcast
10:55 PM 26.6 °F 15.2 °F 19.4 °F 74% 30.08 in 7.0 mi NNW 13.8 mph 19.6 mph N/A Snow Light Snow
11:15 PM 26.6 °F 15.7 °F 19.4 °F 74% 30.04 in 10.0 mi North 12.7 mph 20.7 mph N/A   Overcast
11:35 PM 26.6 °F 15.2 °F 17.6 °F 69% 30.07 in 7.0 mi NNW 13.8 mph 20.7 mph N/A Snow Light Snow
11:55 PM 26.6 °F 15.2 °F 17.6 °F 69% 30.08 in 7.0 mi NNW 13.8 mph 18.4 mph N/A Snow Light Snow